www.pogodaiklimat.ru

Погода и климат >> Архив погоды >> Россия >> Красноярский край >> Светлогорск


ПОГОДА в Светлогорске

  • Прогноз погоды в Светлогорске
  • Монитор погоды в Светлогорске

АРХИВ ПОГОДЫ в Светлогорске

Время (UTC), дата Ветер
(напр.,м/с)
 
Видим.   Явления Облачность Т
(С)
Тd
(С)
f
(%)
Тe
(С)
Тes
(С)
Комфортность P
(гПа)
Po
(гПа)
Тmin
(С)
Tmax
(С)
R
(мм)
R24
(мм)
S
(см)
06 9.01 СВ 3 н/о н/о -37.0 -41.5 63 -48 -48 опасность
обморожения
1006.7 992.1
09 9.01 В 4 н/о н/о -36.2 -40.6 64 -49 -49 опасность
обморожения
1005.8 991.2
12 9.01 СВ 3 н/о н/о -34.9 -39.2 65 -46 -46 опасность
обморожения
1004.5 990.1 -34.9
15 9.01 СВ 3 н/о н/о -32.1 -36.2 67 -42 -42 опасность
обморожения
1002.6 988.4
18 9.01 В 3 н/о н/о -31.3 -35.4 67 -41 -41 опасность
обморожения
1001.1 987.0
21 9.01 СВ 3 н/о н/о -30.3 -34.2 69 -40 -40 опасность
обморожения
1000.0 985.9
00 10.01 СВ 2 н/о н/о -29.6 -33.3 70 -37 -37 опасность
обморожения
999.6 985.5 -34.9 0.6 70
03 10.01 С 2 н/о н/о -29.3 -32.9 71 -37 -37 опасность
обморожения
999.7 985.7
06 10.01 ЮЗ 2 н/о н/о -31.9 -35.7 69 -40 -40 опасность
обморожения
1001.2 987.0
09 10.01 ЮЗ 4 н/о н/о -33.1 -37.1 67 -45 -45 опасность
обморожения
1003.7 989.4
12 10.01 Ю 2 н/о н/о -34.8 -39.0 65 -43 -43 опасность
обморожения
1006.8 992.4 -28.8 0.0
15 10.01 ЮЗ 3 н/о н/о -35.4 -39.7 65 -46 -46 опасность
обморожения
1008.9 994.4
18 10.01 Ю 3 н/о н/о -36.7 -41.3 62 -48 -48 опасность
обморожения
1011.2 996.5
21 10.01 Ю 3 н/о н/о -38.1 -42.8 61 -49 -49 опасность
обморожения
1013.0 998.2
00 11.01 Ю 2 н/о н/о -37.9 -42.6 61 -47 -47 опасность
обморожения
1014.3 999.6 -38.2 0.0 70
03 11.01 Ю 2 н/о н/о -37.7 -42.6 60 -46 -46 опасность
обморожения
1015.7 1000.9
06 11.01 Ю 2 н/о н/о -38.4 -43.2 60 -47 -47 опасность
обморожения
1016.9 1002.0
09 11.01 штиль 0 н/о н/о -40.4 -45.3 59 -40 -40 опасность
обморожения
1018.1 1003.2
12 11.01 СВ 2 н/о н/о -42.3 -47.5 57 -52 -52 опасность
обморожения
1019.5 1004.4 -37.3
15 11.01 СВ 2 н/о н/о -43.8 -49.1 55 -54 -54 опасность
обморожения
1020.3 1005.0
18 11.01 СВ 1 н/о н/о -41.7 -46.8 57 -47 -47 опасность
обморожения
1021.0 1005.9
21 11.01 СВ 2 н/о н/о -39.4 -44.3 59 -48 -48 опасность
обморожения
1021.8 1006.8
00 12.01 штиль 0 н/о н/о -42.2 -47.4 57 -42 -42 опасность
обморожения
1022.8 1007.6 -43.8 70
03 12.01 СВ 1 н/о н/о -45.3 -50.8 54 -51 -51 опасность
обморожения
1024.2 1008.8 -45.3
06 12.01 штиль 0 н/о н/о -44.3 -49.7 55 -44 -44 опасность
обморожения
1025.4 1010.1
09 12.01 штиль 0 н/о н/о -44.3 -49.7 55 -44 -44 опасность
обморожения
1027.6 1012.3
12 12.01 СЗ 1 н/о н/о -46.0 -51.5 53 -52 -52 опасность
обморожения
1029.4 1013.9 -42.3
15 12.01 штиль 0 н/о н/о -45.8 -51.4 53 -46 -46 опасность
обморожения
1031.1 1015.6
18 12.01 СВ 1 н/о н/о -44.3 -49.8 54 -50 -50 опасность
обморожения
1031.8 1016.4
21 12.01 СВ 3 н/о н/о -42.8 -48.1 56 -55 -55 опасность
обморожения
1032.3 1017.0
00 13.01 СВ 4 н/о н/о -39.9 -44.8 59 -53 -53 опасность
обморожения
1030.6 1015.5 -46.7 0.0 70
03 13.01 СВ 5-10
{10}
н/о н/о -36.7 -41.3 62 -51 -51 опасность
обморожения
1028.1 1013.3
06 13.01 СВ 6-10
{11}
н/о н/о -34.3 -38.7 64 -49 -49 опасность
обморожения
1025.9 1011.2
09 13.01 СВ 5
{10}
н/о н/о -31.6 -35.6 68 -45 -45 опасность
обморожения
1024.4 1009.9
12 13.01 СВ 5
{10}
н/о н/о -28.6 -32.1 72 -41 -41 опасность
обморожения
1022.2 1007.9 -28.6 2
15 13.01 В 5
{11}
н/о н/о -26.1 -29.3 74 -38 -38 опасность
обморожения
1019.2 1005.1
18 13.01 СВ 3 н/о н/о -25.3 -28.5 75 -34 -34 опасность
обморожения
1018.2 1004.2
21 13.01 СВ 3 н/о н/о -25.3 -28.5 75 -34 -34 опасность
обморожения
1017.1 1003.0
00 14.01 В 2 н/о н/о -22.6 -25.6 76 -29 -29 1016.1 1002.3 -28.5 0.5 69
03 14.01 В 2 н/о н/о -21.6 -24.4 78 -28 -28 1015.4 1001.6
06 14.01 СВ 3 н/о н/о -22.2 -25.1 77 -30 -30 1015.2 1001.3
09 14.01 СВ 3 н/о н/о -22.2 -25.1 77 -30 -30 1015.2 1001.3
12 14.01 СВ 4 н/о н/о -22.2 -25.0 78 -32 -32 опасность
обморожения
1016.1 1002.3 -21.0 3
15 14.01 В 5 н/о н/о -21.3 -24.1 78 -32 -32 опасность
обморожения
1015.1 1001.3
18 14.01 СВ 4 н/о н/о -20.4 -23.1 79 -29 -29 1014.4 1000.7
21 14.01 СВ 4 н/о н/о -19.7 -22.3 80 -29 -29 1013.0 999.3
00 15.01 СВ 4 н/о н/о -19.0 -21.5 81 -28 -28 1011.7 998.1 -22.2 2 73
06 15.01 СВ 4-10
{11}
н/о н/о -17.6 -20.1 81 -26 -26 1005.3 991.9
09 15.01 В 5
{10}
н/о н/о -16.5 -18.9 82 -26 -26 1002.2 988.9
12 15.01 В 5
{10}
н/о н/о -16.5 -18.9 82 -26 -26 1002.2 988.9
15 15.01 В 2
{11}
н/о н/о -14.7 -16.7 85 -20 -20 999.5 986.3 -14.7 1
18 15.01 Ю 3 н/о н/о -10.5 -12.4 86 -16 -16 998.1 985.1
21 15.01 ЮЗ 5 н/о н/о -11.2 -13.2 85 -19 -19 998.5 985.4
00 16.01 З 4 н/о н/о -11.7 -13.9 84 -19 -19 1001.4 988.3 -14.8 2 72

 

Местоположение метеостанции Светлогорск (Красноярский край, Россия): широта 66.95 долгота 88.42 высота над уровнем моря 101 м.

В архиве по умолчанию представлена погода в Светлогорске за последнюю неделю. Архивные данные за месяц целиком и за предыдущие месяцы, начиная с января 2011 года, Вы можете получить, выбрав интересующий диапазон дат из раскрывающегося списка и нажав кнопку "Ввод!".


*Определитесь, кто Вы:
робот инопланетянин человек

Внимание! Время в таблицах - всемирное. Для получения местного времени необходимо прибавить поправку, которая равна 7 ч.

Смотрите также архив погоды в соседних городах и на ближайших метеорологических станциях:

Погода в Горбиачине (Красноярский край, Россия) (64 км)
Погода в Курейке (Красноярский край, Россия) (75 км)
Погода в Игарке (Красноярский край, Россия) (98 км)
Погода в Снежногорске (Красноярский край, Россия) (131 км)
Погода в Туруханске (Красноярский край, Россия) (132 км)
Погода в Большом Пороге (Эвенкия, Россия) (164 км)
Погода в Советской Речке (Красноярский край, Россия) (202 км)
Погода в Потапово (Красноярский край, Россия) (212 км)
Погода в Агате (Эвенкия, Россия) (220 км)
Погода в Норильске (Красноярский край, Россия) (265 км)

Пояснения к столбцам:

Ветер - указаны скорость ветра в м/с - средняя за 10 мин, порывы в срок и между сроками (в фигурных скобках) и направление, откуда дует ветер: С - северный, СВ - северо-восточный, В - восточный, ЮВ - юго-восточный, Ю - южный, ЮЗ - юго-западный, З - западный, СЗ - северо-западный.
Видимость - горизонтальная дальность видимости в метрах или километрах. При видимости от 1 до 10 км при отсутствии осадков обычно наблюдается дымка, при ухудшении видимости до 1 км и менее - туман. В сухую погоду видимость может ухудшаться дымом, пылью или мглою.
Явления - указаны атмосферные явления, наблюдавшиеся в срок или в последний час перед сроком; фигурными скобками обозначены явления, наблюдавшиеся между сроками (за 1-3 часа до срока); квадратными скобками обозначены град или гололедные отложения с указанием их диаметра в мм.
Облачность - указаны через наклонную черту общая и нижняя облачность в баллах и высота нижней границы облаков в метрах; квадратными скобками обозначены формы облаков: Ci - перистые, Cs - перисто-слоистые, Cc - перисто-кучевые, Ac - высококучевые, As - высокослоистые, Sc - слоисто-кучевые, Ns - слоисто-дождевые, Cu - кучевые, Cb - кучево-дождевые. Подробнее классификацию облаков см. в Атласе облаков (PDF).
T - Температура воздуха - температура, измеренная на высоте 2 м над землей.
Td - Температура точки росы - температура, при понижении до которой содержащийся в воздухе водяной пар достигнет насыщения.
f - Относительная влажность воздуха - влажноcть воздуха, измеренная на высоте 2 м над землей.
Te - Эффективная температура - температура, которую ощущает одетый по сезону человек в тени. Характеристика душности погоды. При расчете учитывается влияние влажности воздуха и скорости ветра на теплоощущения человека.
Tes - Эффективная температура на солнце - температура, которую ощущает человек, с поправкой на солнечный нагрев. Характеристика знойности погоды. Зависит от высоты солнца над горизонтом, облачности и скорости ветра. Ночью, в пасмурную погоду, а также при ветре 12 м/с и более поправка равна нулю.
P - Атмосферное давление - приведенное к уровню моря атмосферное давление.
Po - Атмосферное давление - измеренное на уровне метеостанции атмосферное давление.
Tmin - Минимальная температура - минимум температуры воздуха на высоте 2 м над землей.
Tmax - Максимальная температура - максимум температуры воздуха на высоте 2 м над землей.
R - Количество осадков - Количество выпавших осадков за период времени, мм. При наведении курсора мыши на число - период времени, за который выпало указанное количество осадков.
R24 - Количество осадков - Количество выпавших осадков за 24 часа, мм.
S - Снежный покров - Высота снежного покрова, см. При наведении курсора мыши на число - состояние снежного покрова и степень покрытия местности в баллах.